TimeEDT,TemperatureF,Dew PointF,Humidity,Sea Level PressureIn,VisibilityMPH,Wind Direction,Wind SpeedMPH,Gust SpeedMPH,PrecipitationIn,Events,Conditions,WindDirDegrees,DateUTC
12:58 AM,55.2,54.9,99,29.93,10.0,Calm,Calm,-,N/A,,Clear,0,2013-09-05 04:58:00
1:58 AM,56.8,56.7,99,29.92,10.0,Variable,1.2,-,N/A,,Clear,0,2013-09-05 05:58:00
2:58 AM,57.6,57.2,99,29.92,10.0,Calm,Calm,-,N/A,,Overcast,0,2013-09-05 06:58:00
3:58 AM,58.8,58.5,99,29.90,10.0,South,1.2,-,N/A,,Overcast,190,2013-09-05 07:58:00
4:58 AM,57.7,57.6,99,29.92,10.0,NE,2.3,-,N/A,,Mostly Cloudy,40,2013-09-05 08:58:00
5:58 AM,59.7,59.4,99,29.92,10.0,NW,2.3,-,N/A,,Overcast,310,2013-09-05 09:58:00
6:40 AM,59.0,59.0,100,29.91,10.0,NE,2.3,-,N/A,Rain,Light Rain,40,2013-09-05 10:40:00
6:58 AM,59.9,59.5,99,29.94,10.0,Variable,1.2,-,0.00,,Light Drizzle,0,2013-09-05 10:58:00
7:03 AM,60.8,59.0,94,29.92,10.0,Calm,Calm,-,N/A,,Mostly Cloudy,0,2013-09-05 11:03:00
7:28 AM,60.8,60.8,100,29.92,10.0,Calm,Calm,-,N/A,Rain,Light Rain,0,2013-09-05 11:28:00
7:42 AM,60.8,60.8,100,29.93,10.0,ENE,1.2,-,N/A,,Mostly Cloudy,60,2013-09-05 11:42:00
7:52 AM,60.8,60.8,100,29.94,9.0,NW,2.3,-,N/A,Rain,Light Rain,320,2013-09-05 11:52:00
7:53 AM,60.8,60.8,100,29.94,7.0,NNW,2.3,-,N/A,Rain,Light Rain,330,2013-09-05 11:53:00
7:58 AM,61.3,61.2,99,29.96,5.0,Calm,Calm,-,0.01,Rain,Light Rain,0,2013-09-05 11:58:00
8:26 AM,62.6,62.6,100,29.94,10.0,SSW,4.6,-,N/A,,Overcast,210,2013-09-05 12:26:00
8:58 AM,64.4,64.0,99,29.97,10.0,West,5.8,-,0.01,,Overcast,260,2013-09-05 12:58:00
9:58 AM,68.0,61.7,80,29.97,10.0,WNW,8.1,-,N/A,,Mostly Cloudy,300,2013-09-05 13:58:00
10:56 AM,70.2,59.4,69,29.97,10.0,North,12.7,-,N/A,,Mostly Cloudy,360,2013-09-05 14:56:00
11:55 AM,69.8,55.8,61,29.98,10.0,North,11.5,-,N/A,,Mostly Cloudy,10,2013-09-05 15:55:00
12:55 PM,71.4,52.7,52,29.99,10.0,NNE,8.1,-,N/A,,Mostly Cloudy,30,2013-09-05 16:55:00
1:55 PM,72.1,50.9,47,29.99,10.0,Variable,5.8,-,N/A,,Scattered Clouds,0,2013-09-05 17:55:00
2:58 PM,70.9,49.3,46,30.01,10.0,NW,12.7,-,N/A,,Scattered Clouds,310,2013-09-05 18:58:00
3:58 PM,72.9,44.6,36,30.02,10.0,NW,13.8,20.7,N/A,,Scattered Clouds,320,2013-09-05 19:58:00
4:58 PM,71.1,40.5,33,30.03,10.0,NNW,12.7,18.4,N/A,,Scattered Clouds,330,2013-09-05 20:58:00
5:58 PM,69.1,41.0,36,30.06,10.0,North,10.4,-,N/A,,Scattered Clouds,360,2013-09-05 21:58:00
6:58 PM,64.9,42.8,45,30.07,10.0,North,6.9,-,N/A,,Scattered Clouds,350,2013-09-05 22:58:00
7:58 PM,58.5,45.0,61,30.09,10.0,NW,1.2,-,N/A,,Partly Cloudy,320,2013-09-05 23:58:00
8:58 PM,51.6,48.7,90,30.12,10.0,ENE,3.5,-,N/A,,Clear,70,2013-09-06 00:58:00
9:58 PM,50.7,49.8,97,30.14,10.0,NE,2.3,-,N/A,,Clear,40,2013-09-06 01:58:00
10:58 PM,47.5,46.9,98,30.14,10.0,NE,4.6,-,N/A,,Clear,50,2013-09-06 02:58:00
11:58 PM,47.3,46.9,99,30.16,10.0,NNE,2.3,-,N/A,,Clear,30,2013-09-06 03:58:00